When you browse on this site, cookies collect data to enhance your experience and personalize the content and advertising you see.
Visit our Privacy Policy to learn more. By continuing to use the site, you agree to this use of cookies and data.
  • In Austria
  • List of Countries
  • For 7 days
  • Water Temperature
  • Weather Map
  • News
  • Weather Widgets
  • user-avatar
    Login

    Hourly Weather Portalegre

    Today, 4 April, Saturday

    Time Temperature Precipitation Wind Pressure Humidity
    00:00 +9°C° 0 mm 2 mps 720 mmHg 78%
    01:00 +8°C° 0 mm 2 mps 720 mmHg 81%
    02:00 +8°C° 0 mm 2 mps 720 mmHg 84%
    03:00 +8°C° 0 mm 2 mps 719 mmHg 87%
    04:00 +7°C° 0 mm 2 mps 719 mmHg 87%
    05:00 +7°C° 0 mm 2 mps 719 mmHg 87%
    06:00 +7°C° 0 mm 2 mps 719 mmHg 87%
    07:00 +9°C° 0 mm 3 mps 719 mmHg 80%
    08:00 +10°C° 0 mm 3 mps 719 mmHg 73%
    09:00 +12°C° 0 mm 4 mps 720 mmHg 66%
    10:00 +13°C° 0 mm 4 mps 720 mmHg 62%
    11:00 +14°C° 0 mm 4 mps 720 mmHg 59%
    12:00 +15°C° 0 mm 5 mps 720 mmHg 55%
    13:00 +17°C° 0 mm 4 mps 720 mmHg 56%
    14:00 +17°C° 0 mm 4 mps 719 mmHg 56%
    15:00 +17°C° 0 mm 4 mps 719 mmHg 57%
    16:00 +16°C° 0.1 mm 3 mps 719 mmHg 63%
    17:00 +14°C° 0.1 mm 3 mps 719 mmHg 70%
    18:00 +14°C° 0.1 mm 2 mps 719 mmHg 76%
    19:00 +12°C° 0 mm 3 mps 719 mmHg 79%
    20:00 +12°C° 0 mm 3 mps 720 mmHg 81%
    21:00 +11°C° 0 mm 3 mps 720 mmHg 84%
    22:00 +11°C° 0 mm 3 mps 720 mmHg 86%
    23:00 +11°C° 0 mm 3 mps 720 mmHg 88%

    Tomorrow, 5 April, Sunday

    Time Temperature Precipitation Wind Pressure Humidity
    00:00 +10°C° 0 mm 3 mps 720 mmHg 89%
    01:00 +10°C° 0 mm 3 mps 720 mmHg 90%
    02:00 +10°C° 0 mm 3 mps 720 mmHg 90%
    03:00 +10°C° 0 mm 3 mps 720 mmHg 90%
    04:00 +10°C° 0.1 mm 3 mps 720 mmHg 91%
    05:00 +9°C° 0.1 mm 3 mps 720 mmHg 91%
    06:00 +9°C° 0.1 mm 3 mps 720 mmHg 91%
    07:00 +10°C° 0.3 mm 4 mps 720 mmHg 91%
    08:00 +11°C° 0.3 mm 4 mps 721 mmHg 91%
    09:00 +11°C° 0.3 mm 4 mps 721 mmHg 91%
    10:00 +13°C° 0.1 mm 4 mps 721 mmHg 88%
    11:00 +14°C° 0.1 mm 5 mps 721 mmHg 85%
    12:00 +15°C° 0.1 mm 5 mps 721 mmHg 82%
    13:00 +14°C° 1.6 mm 5 mps 721 mmHg 86%
    14:00 +14°C° 1.6 mm 5 mps 720 mmHg 90%
    15:00 +13°C° 1.6 mm 5 mps 720 mmHg 94%
    16:00 +13°C° 1.6 mm 4 mps 720 mmHg 94%
    17:00 +13°C° 1.6 mm 4 mps 720 mmHg 95%
    18:00 +13°C° 1.6 mm 3 mps 720 mmHg 96%
    19:00 +13°C° 0.3 mm 3 mps 721 mmHg 96%
    20:00 +13°C° 0.3 mm 3 mps 721 mmHg 97%
    21:00 +13°C° 0.3 mm 3 mps 722 mmHg 97%
    22:00 +13°C° 0.2 mm 3 mps 722 mmHg 97%
    23:00 +13°C° 0.2 mm 3 mps 722 mmHg 97%

    Day after tomorrow, 6 April, Monday

    Time Temperature Precipitation Wind Pressure Humidity
    00:00 +13°C° 0.2 mm 3 mps 722 mmHg 98%
    01:00 +13°C° 0.1 mm 2 mps 722 mmHg 97%
    02:00 +13°C° 0.1 mm 2 mps 723 mmHg 97%
    03:00 +13°C° 0.1 mm 2 mps 723 mmHg 97%
    04:00 +12°C° 0 mm 2 mps 723 mmHg 98%
    05:00 +12°C° 0 mm 2 mps 723 mmHg 98%
    06:00 +10°C° 0 mm 2 mps 723 mmHg 98%
    07:00 +12°C° 0 mm 2 mps 724 mmHg 95%
    08:00 +13°C° 0 mm 2 mps 725 mmHg 92%
    09:00 +13°C° 0 mm 2 mps 725 mmHg 89%
    10:00 +15°C° 0 mm 2 mps 726 mmHg 78%
    11:00 +17°C° 0 mm 2 mps 726 mmHg 68%
    12:00 +19°C° 0 mm 2 mps 727 mmHg 58%
    13:00 +19°C° 0 mm 2 mps 726 mmHg 57%
    14:00 +19°C° 0 mm 2 mps 726 mmHg 56%
    15:00 +19°C° 0 mm 3 mps 726 mmHg 54%
    16:00 +19°C° 0 mm 2 mps 726 mmHg 60%
    17:00 +18°C° 0 mm 2 mps 726 mmHg 66%
    18:00 +17°C° 0 mm 2 mps 726 mmHg 71%
    19:00 +16°C° 0 mm 1 mps 726 mmHg 75%
    20:00 +14°C° 0 mm 1 mps 727 mmHg 78%
    21:00 +12°C° 0 mm 1 mps 727 mmHg 82%
    22:00 +12°C° 0 mm 1 mps 727 mmHg 83%
    23:00 +11°C° 0 mm 1 mps 727 mmHg 84%

    7 April, Tuesday

    Time Temperature Precipitation Wind Pressure Humidity
    00:00 +10°C° 0 mm 0 mps 727 mmHg 84%
    01:00 +10°C° 0 mm 0 mps 727 mmHg 85%
    02:00 +9°C° 0 mm 0 mps 727 mmHg 86%
    03:00 +9°C° 0 mm 0 mps 727 mmHg 87%
    04:00 +9°C° 0 mm 0 mps 727 mmHg 87%
    05:00 +9°C° 0 mm 0 mps 727 mmHg 87%
    06:00 +9°C° 0 mm 1 mps 727 mmHg 88%
    07:00 +12°C° 0 mm 1 mps 727 mmHg 81%
    08:00 +14°C° 0 mm 1 mps 727 mmHg 75%
    09:00 +16°C° 0 mm 1 mps 728 mmHg 69%
    10:00 +18°C° 0 mm 1 mps 728 mmHg 64%
    11:00 +20°C° 0 mm 1 mps 728 mmHg 60%
    12:00 +21°C° 0 mm 1 mps 728 mmHg 55%
    13:00 +22°C° 0 mm 1 mps 728 mmHg 54%
    14:00 +22°C° 0 mm 1 mps 727 mmHg 52%
    15:00 +23°C° 0 mm 1 mps 727 mmHg 51%
    16:00 +22°C° 0 mm 1 mps 727 mmHg 57%
    17:00 +21°C° 0 mm 1 mps 727 mmHg 63%
    18:00 +20°C° 0 mm 1 mps 726 mmHg 68%
    19:00 +18°C° 0 mm 1 mps 727 mmHg 72%
    20:00 +16°C° 0 mm 1 mps 727 mmHg 75%
    21:00 +14°C° 0 mm 1 mps 727 mmHg 78%
    22:00 +14°C° 0 mm 1 mps 727 mmHg 78%
    23:00 +13°C° 0 mm 1 mps 727 mmHg 79%

    8 April, Wednesday

    Time Temperature Precipitation Wind Pressure Humidity
    00:00 +13°C° 0 mm 1 mps 727 mmHg 79%
    01:00 +13°C° 0 mm 1 mps 727 mmHg 79%
    02:00 +13°C° 0 mm 1 mps 726 mmHg 79%
    03:00 +13°C° 0 mm 1 mps 726 mmHg 78%
    04:00 +13°C° 0 mm 1 mps 726 mmHg 79%
    05:00 +12°C° 0 mm 1 mps 726 mmHg 80%
    06:00 +12°C° 0 mm 1 mps 726 mmHg 81%
    07:00 +14°C° 0 mm 2 mps 726 mmHg 78%
    08:00 +15°C° 0 mm 2 mps 726 mmHg 75%
    09:00 +17°C° 0 mm 2 mps 726 mmHg 72%
    10:00 +18°C° 0 mm 2 mps 727 mmHg 71%
    11:00 +19°C° 0 mm 2 mps 727 mmHg 69%
    12:00 +20°C° 0 mm 2 mps 727 mmHg 67%
    13:00 +21°C° 0.1 mm 1 mps 727 mmHg 68%
    14:00 +21°C° 0.1 mm 1 mps 726 mmHg 69%
    15:00 +19°C° 0.1 mm 0 mps 726 mmHg 70%
    16:00 +20°C° 0 mm 1 mps 726 mmHg 75%
    17:00 +19°C° 0 mm 1 mps 725 mmHg 79%
    18:00 +18°C° 0 mm 1 mps 725 mmHg 84%
    19:00 +16°C° 0 mm 1 mps 725 mmHg 84%
    20:00 +16°C° 0 mm 1 mps 726 mmHg 84%
    21:00 +16°C° 0 mm 1 mps 726 mmHg 84%
    22:00 +15°C° 0 mm 1 mps 726 mmHg 85%
    23:00 +15°C° 0 mm 1 mps 726 mmHg 86%

    9 April, Thursday

    Time Temperature Precipitation Wind Pressure Humidity
    00:00 +13°C° 0 mm 0 mps 726 mmHg 87%
    01:00 +13°C° 0 mm 0 mps 725 mmHg 87%
    02:00 +13°C° 0 mm 0 mps 725 mmHg 87%
    03:00 +13°C° 0 mm 0 mps 724 mmHg 86%
    04:00 +13°C° 0 mm 0 mps 725 mmHg 86%
    05:00 +13°C° 0 mm 0 mps 725 mmHg 86%
    06:00 +13°C° 0 mm 0 mps 725 mmHg 86%
    07:00 +13°C° 0 mm 0 mps 725 mmHg 85%
    08:00 +14°C° 0 mm 0 mps 725 mmHg 84%
    09:00 +16°C° 0 mm 1 mps 725 mmHg 82%
    10:00 +16°C° 0.1 mm 1 mps 726 mmHg 83%
    11:00 +16°C° 0.1 mm 1 mps 726 mmHg 84%
    12:00 +16°C° 0.1 mm 1 mps 726 mmHg 84%
    13:00 +18°C° 0.1 mm 1 mps 726 mmHg 84%
    14:00 +18°C° 0.1 mm 1 mps 725 mmHg 85%
    15:00 +18°C° 0.1 mm 1 mps 725 mmHg 85%
    16:00 +18°C° 0 mm 1 mps 725 mmHg 84%
    17:00 +18°C° 0 mm 1 mps 725 mmHg 83%
    18:00 +18°C° 0 mm 1 mps 725 mmHg 83%
    19:00 +16°C° 0 mm 1 mps 725 mmHg 85%
    20:00 +15°C° 0 mm 1 mps 725 mmHg 86%
    21:00 +15°C° 0 mm 1 mps 726 mmHg 88%
    22:00 +14°C° 0 mm 1 mps 726 mmHg 90%
    23:00 +13°C° 0 mm 1 mps 726 mmHg 93%
    Show more